Regional Weather Roundup
Issued by NWS

Home | Current Version | Previous Version | Text Only | Print | Product List | Glossary On
Versions: 1 2 3 4 5 6 7 8 9 10 11 12 13 14 15 16 17 18 19 20 21 22 23 24 25 26 27 28 29 30 31 32 33 34 35 36 37 38 39 40 41 42 43 44 45 46 47 48 49 50
000
ASUS43 KLSX 201107
RWRMO

WEATHER SUMMARY FOR MISSOURI
NATIONAL WEATHER SERVICE SPRINGFIELD MO
600 AM CDT MON OCT 20 2014

NOTE: "FAIR" INDICATES FEW OR NO CLOUDS BELOW 12,000 FEET WITH NO
       SIGNIFICANT WEATHER AND/OR OBSTRUCTIONS TO VISIBILITY.
       CURRENT SKY AND/OR WEATHER CONDITIONS ARE NOT AVAILABLE FOR
       CHILLICOTHE AND FARMINGTON.

MOZ001>031-035>038-043-044-053-054-201200-
...NORTHERN AND WESTERN MISSOURI...

CITY           SKY/WX    TMP DP  RH WIND       PRES   REMARKS
KANSAS CTY INT CLEAR     51  50  96 SW8       29.98S
KANSAS C DTWN  CLEAR     53  50  89 SW3       29.99R
LEE`S SUMMIT   CLEAR     53  51  93 SW7       30.00R
ST JOSEPH      FOG       41  41 100 CALM      29.99S VSB 1/2
CHILLICOTHE      N/A     52  48  86 VRB3      29.98R
KIRKSVILLE     CLEAR     53  49  86 W9        29.96R

$$
MOZ066>068-077>081-088>096-101>105-201200-
...SOUTHWEST MISSOURI...

CITY           SKY/WX    TMP DP  RH WIND       PRES   REMARKS
SPRINGFIELD    CLOUDY    56  51  84 SW3       30.03S
JOPLIN         CLOUDY    58  53  84 S7        30.04S

$$
MOZ032>034-039>042-045>050-055>058-069>072-201200-
...CENTRAL MISSOURI...

CITY           SKY/WX    TMP DP  RH WIND       PRES   REMARKS
COLUMBIA       CLEAR     49  48  97 SW6       29.98S
JEFFERSON CITY CLEAR     48  46  93 CALM      29.99S
ROLLA          MOCLDY    49  46  90 SW8       29.99S
SEDALIA        CLEAR     55  51  86 SW9       30.00S
WHITEMAN AFB   CLEAR     54  51  90 W7        29.99S
OSAGE BEACH    CLOUDY    52  46  82 CALM      30.00F

$$
MOZ051-052-059>065-201200-
...EAST CENTRAL MISSOURI...

CITY           SKY/WX    TMP DP  RH WIND       PRES   REMARKS
ST LOUIS INTL  PTCLDY    55  47  74 SW7       29.96F
SPIRIT OF STL  PTCLDY    55  48  77 SW9       29.96F
ST CHARLES     CLEAR     50  47  89 SW3       29.95F

$$
MOZ072>076-082>087-097>100-106>115-201200-
...SOUTH CENTRAL AND SOUTHEAST MISSOURI...

CITY           SKY/WX    TMP DP  RH WIND       PRES   REMARKS
CAPE GIRARDEAU CLOUDY    50  46  86 CALM      30.04S
FARMINGTON     CLOUDY    52  46  82 S5        30.02S
POPLAR BLUFF   MOCLDY    51  47  86 CALM      30.04R
WEST PLAINS    CLOUDY    53  48  83 W5        30.05R

$$


USA.gov is the U.S. government's official web portal to all federal, state and local government web resources and services.